Location: Holiday Acres Laynes 2 Mobile Home Park
(26.7249°N, 81.8671°W)
Time: 07:37:42
(UTC+00:00)

SL-24 R/B - Pass Details

Date: 25 November 2020
Orbit: 505 x 1003 km, 97.4° (Epoch: 21 January)

Event Time Altitude Azimuth Distance (km) Brightness Sun altitude
Rises 23:32:56 0° 10° (N) 2,738 7.1 -13.1°
Reaches altitude 10° 23:35:07 10° 10° (N) 1,794 6.2 -13.6°
Maximum altitude 23:38:55 84° 284° (WNW) 520 3.7 -14.4°
Drops below altitude 10° 23:42:33 10° 194° (SSW) 1,707 6.7 -15.2°
Sets 23:44:35 0° 193° (SSW) 2,591 7.7 -15.6°
